Terminal Aerodrome Forecast
Issued by NWS Des Moines, IA

Home | Current Version | Previous Version | Text Only | Print | Product List | Glossary On
Versions: 1 2 3 4 5 6 7 8 9 10 11 12 13 14 15 16 17 18
000
FTUS43 KDMX 231128
TAFALO
TAF
KALO 231128Z 2312/2412 16008KT 3SM RA BR BKN014 OVC050
     FM231400 19004KT 3SM BR VCSH BKN005 OVC025
     FM231700 22007KT P6SM SCT008 BKN025
     FM231900 24006KT P6SM SKC
     FM232300 21003KT P6SM SKC=

USA.gov is the U.S. government's official web portal to all federal, state and local government web resources and services.